Time,TemperatureF,DewpointF,PressureIn,WindDirection,WindDirectionDegrees,WindSpeedMPH,WindSpeedGustMPH,Humidity,HourlyPrecipIn,Conditions,Clouds,dailyrainin,SoftwareType,DateUTC
2013-02-07 00:00:00,48.4,23.3,25.60,SW,232,3.6,5.4,37,0.00,,---,0.00,VWS V13.01,2013-02-07 07:00:00,
2013-02-07 00:20:00,47.7,22.7,25.60,SW,232,2.7,4.0,37,0.00,,---,0.00,VWS V13.01,2013-02-07 07:20:00,
2013-02-07 00:40:00,47.3,23.0,25.60,SW,225,2.2,3.6,38,0.00,,---,0.00,VWS V13.01,2013-02-07 07:40:00,
2013-02-07 01:00:00,46.4,22.8,25.60,SW,225,2.7,3.1,39,0.00,,---,0.00,VWS V13.01,2013-02-07 08:00:00,
2013-02-07 01:20:00,45.3,22.4,25.60,SW,229,3.1,4.0,40,0.00,,---,0.00,VWS V13.01,2013-02-07 08:20:00,
2013-02-07 01:40:00,44.8,22.5,25.60,SW,233,3.6,4.5,41,0.00,,---,0.00,VWS V13.01,2013-02-07 08:40:00,
2013-02-07 02:00:00,44.4,23.3,25.57,SW,232,2.7,4.5,43,0.00,,---,0.00,VWS V13.01,2013-02-07 09:00:00,
2013-02-07 02:20:00,43.7,23.8,25.60,SSE,154,2.7,4.9,45,0.00,,---,0.00,VWS V13.01,2013-02-07 09:20:00,
2013-02-07 02:40:00,43.9,23.4,25.60,SSE,155,0.0,3.1,44,0.00,,---,0.00,VWS V13.01,2013-02-07 09:40:00,
2013-02-07 03:00:00,43.7,23.2,25.60,SW,217,0.0,4.0,44,0.00,,---,0.00,VWS V13.01,2013-02-07 10:00:00,
2013-02-07 03:20:00,43.7,23.2,25.60,SW,220,0.0,3.6,44,0.00,,---,0.00,VWS V13.01,2013-02-07 10:20:00,
2013-02-07 03:40:00,43.3,22.9,25.60,SSW,208,2.7,4.0,44,0.00,,---,0.00,VWS V13.01,2013-02-07 10:40:00,
2013-02-07 04:00:00,42.6,23.3,25.60,SSW,210,0.0,3.6,46,0.00,,---,0.00,VWS V13.01,2013-02-07 11:00:00,
2013-02-07 04:20:00,42.3,24.0,25.60,SW,217,2.7,4.5,48,0.00,,---,0.00,VWS V13.01,2013-02-07 11:20:00,
2013-02-07 04:40:00,42.1,24.3,25.60,West,273,3.1,4.0,49,0.00,,---,0.00,VWS V13.01,2013-02-07 11:40:00,
2013-02-07 05:00:00,41.2,23.5,25.60,SSW,204,2.7,3.6,49,0.00,,---,0.00,VWS V13.01,2013-02-07 12:00:00,
2013-02-07 05:20:00,41.0,23.8,25.60,SSW,202,0.0,3.1,50,0.00,,---,0.00,VWS V13.01,2013-02-07 12:20:00,
2013-02-07 05:40:00,41.0,23.3,25.60,SSW,202,0.0,0.0,49,0.00,,---,0.00,VWS V13.01,2013-02-07 12:40:00,
2013-02-07 06:00:00,40.3,23.1,25.60,SSW,203,0.0,0.0,50,0.00,,---,0.00,VWS V13.01,2013-02-07 13:00:00,
2013-02-07 06:20:00,39.9,22.8,25.60,SSW,209,0.0,0.0,50,0.00,,---,0.00,VWS V13.01,2013-02-07 13:20:00,
2013-02-07 06:40:00,39.9,22.8,25.60,SSW,209,0.0,0.0,50,0.00,,---,0.00,VWS V13.01,2013-02-07 13:40:00,
2013-02-07 07:00:00,39.9,22.3,25.63,SSW,213,0.0,0.0,49,0.00,,---,0.00,VWS V13.01,2013-02-07 14:00:00,
2013-02-07 07:20:00,39.9,22.3,25.63,SW,214,0.0,0.0,49,0.00,,---,0.00,VWS V13.01,2013-02-07 14:20:00,
2013-02-07 07:40:00,41.5,22.3,25.63,SSW,213,2.7,2.7,46,0.00,,---,0.00,VWS V13.01,2013-02-07 14:40:00,
2013-02-07 08:00:00,45.5,23.8,25.63,SSW,213,0.0,3.1,42,0.00,,---,0.00,VWS V13.01,2013-02-07 15:00:00,
2013-02-07 08:20:00,53.4,27.1,25.63,SW,223,3.6,3.6,36,0.00,,---,0.00,VWS V13.01,2013-02-07 15:20:00,
2013-02-07 08:40:00,54.0,25.5,25.63,SW,229,0.0,4.0,33,0.00,,---,0.00,VWS V13.01,2013-02-07 15:40:00,
2013-02-07 09:00:00,52.5,26.4,25.66,SW,228,0.0,0.0,36,0.00,,---,0.00,VWS V13.01,2013-02-07 16:00:00,
2013-02-07 09:20:00,53.2,27.0,25.66,SW,234,0.0,0.0,36,0.00,,---,0.00,VWS V13.01,2013-02-07 16:20:00,
2013-02-07 09:40:00,54.3,26.6,25.66,SE,137,4.0,5.4,34,0.00,,---,0.00,VWS V13.01,2013-02-07 16:40:00,
2013-02-07 10:00:00,55.4,25.3,25.66,NE,52,3.6,5.4,31,0.00,,---,0.00,VWS V13.01,2013-02-07 17:00:00,
2013-02-07 10:20:00,56.7,24.8,25.66,NE,48,0.0,6.3,29,0.00,,---,0.00,VWS V13.01,2013-02-07 17:20:00,
2013-02-07 10:40:00,57.4,23.7,25.66,NW,325,2.7,6.3,27,0.00,,---,0.00,VWS V13.01,2013-02-07 17:40:00,
2013-02-07 11:00:00,57.9,23.3,25.63,ESE,113,0.0,7.6,26,0.00,,---,0.00,VWS V13.01,2013-02-07 18:00:00,
2013-02-07 11:20:00,58.6,23.9,25.63,NNE,30,3.1,8.3,26,0.00,,---,0.00,VWS V13.01,2013-02-07 18:20:00,
2013-02-07 11:40:00,59.7,23.9,25.63,ESE,102,4.0,10.5,25,0.00,,---,0.00,VWS V13.01,2013-02-07 18:40:00,
2013-02-07 12:00:00,61.3,24.3,25.63,NE,55,4.9,7.6,24,0.00,,---,0.00,VWS V13.01,2013-02-07 19:00:00,
2013-02-07 12:20:00,63.1,25.8,25.63,WNW,290,2.7,7.2,24,0.00,,---,0.00,VWS V13.01,2013-02-07 19:20:00,
2013-02-07 12:40:00,64.8,22.8,25.63,SSE,155,2.7,6.3,20,0.00,,---,0.00,VWS V13.01,2013-02-07 19:40:00,
2013-02-07 13:00:00,66.0,23.8,25.60,SSE,160,5.4,8.7,20,0.00,,---,0.00,VWS V13.01,2013-02-07 20:00:00,
2013-02-07 13:20:00,66.6,24.3,25.60,ENE,58,2.2,8.7,20,0.00,,---,0.00,VWS V13.01,2013-02-07 20:20:00,
2013-02-07 13:40:00,65.8,23.7,25.57,SSE,167,4.0,10.5,20,0.00,,---,0.00,VWS V13.01,2013-02-07 20:40:00,
2013-02-07 14:00:00,66.6,24.3,25.57,NE,38,2.7,8.3,20,0.00,,---,0.00,VWS V13.01,2013-02-07 21:00:00,
2013-02-07 14:20:00,66.0,23.8,25.57,ENE,62,3.6,10.1,20,0.00,,---,0.00,VWS V13.01,2013-02-07 21:20:00,
2013-02-07 14:40:00,67.1,24.7,25.57,North,5,3.1,10.5,20,0.00,,---,0.00,VWS V13.01,2013-02-07 21:40:00,
2013-02-07 15:00:00,68.2,21.7,25.57,SW,218,2.7,6.7,17,0.00,,---,0.00,VWS V13.01,2013-02-07 22:00:00,
2013-02-07 15:20:00,67.8,21.5,25.54,NE,45,4.9,8.7,17,0.00,,---,0.00,VWS V13.01,2013-02-07 22:20:00,
2013-02-07 15:40:00,68.2,21.7,25.54,SSE,156,3.1,8.7,17,0.00,,---,0.00,VWS V13.01,2013-02-07 22:40:00,
2013-02-07 16:00:00,68.0,21.6,25.54,SE,136,6.7,8.7,17,0.00,,---,0.00,VWS V13.01,2013-02-07 23:00:00,
2013-02-07 16:20:00,68.0,21.6,25.54,SSE,167,4.0,8.1,17,0.00,,---,0.00,VWS V13.01,2013-02-07 23:20:00,
2013-02-07 16:40:00,67.3,21.0,25.54,East,86,0.0,8.3,17,0.00,,---,0.00,VWS V13.01,2013-02-07 23:40:00,
2013-02-07 17:00:00,66.7,20.6,25.54,SE,141,7.6,7.6,17,0.00,,---,0.00,VWS V13.01,2013-02-08 00:00:00,
2013-02-07 17:20:00,66.4,20.3,25.54,SSW,207,0.0,7.6,17,0.00,,---,0.00,VWS V13.01,2013-02-08 00:20:00,
2013-02-07 17:40:00,65.1,20.6,25.54,SSW,207,0.0,0.0,18,0.00,,---,0.00,VWS V13.01,2013-02-08 00:40:00,
2013-02-07 18:00:00,63.5,19.3,25.54,SSW,207,0.0,0.0,18,0.00,,---,0.00,VWS V13.01,2013-02-08 01:00:00,
2013-02-07 18:20:00,61.3,18.8,25.54,SW,221,3.1,4.0,19,0.00,,---,0.00,VWS V13.01,2013-02-08 01:20:00,
2013-02-07 18:40:00,59.5,17.3,25.54,SW,218,2.2,4.0,19,0.00,,---,0.00,VWS V13.01,2013-02-08 01:40:00,
2013-02-07 19:00:00,57.7,15.8,25.54,WSW,237,4.0,4.5,19,0.00,,---,0.00,VWS V13.01,2013-02-08 02:00:00,
2013-02-07 19:20:00,55.9,15.5,25.57,SSW,210,4.0,5.4,20,0.00,,---,0.00,VWS V13.01,2013-02-08 02:20:00,
2013-02-07 19:40:00,54.3,14.1,25.57,SW,226,2.7,5.4,20,0.00,,---,0.00,VWS V13.01,2013-02-08 02:40:00,
2013-02-07 20:00:00,53.1,14.2,25.57,SW,216,4.5,5.4,21,0.00,,---,0.00,VWS V13.01,2013-02-08 03:00:00,
2013-02-07 20:20:00,52.5,13.7,25.57,SW,215,5.4,5.4,21,0.00,,---,0.00,VWS V13.01,2013-02-08 03:20:00,
2013-02-07 20:40:00,52.3,13.6,25.57,SW,234,4.0,6.3,21,0.00,,---,0.00,VWS V13.01,2013-02-08 03:40:00,
2013-02-07 21:00:00,52.0,13.3,25.57,SSW,213,3.6,4.0,21,0.00,,---,0.00,VWS V13.01,2013-02-08 04:00:00,
2013-02-07 21:20:00,51.4,15.9,25.57,SSW,212,2.2,4.0,24,0.00,,---,0.00,VWS V13.01,2013-02-08 04:20:00,
2013-02-07 21:40:00,51.3,15.7,25.54,SSW,212,2.2,2.2,24,0.00,,---,0.00,VWS V13.01,2013-02-08 04:40:00,
2013-02-07 22:00:00,50.5,15.1,25.57,SW,226,3.1,4.0,24,0.00,,---,0.00,VWS V13.01,2013-02-08 05:00:00,
2013-02-07 22:20:00,50.2,14.8,25.54,SW,216,3.6,4.9,24,0.00,,---,0.00,VWS V13.01,2013-02-08 05:20:00,
2013-02-07 22:40:00,49.1,13.9,25.54,SW,216,0.0,4.0,24,0.00,,---,0.00,VWS V13.01,2013-02-08 05:40:00,
2013-02-07 23:00:00,48.6,13.4,25.54,SW,216,0.0,0.0,24,0.00,,---,0.00,VWS V13.01,2013-02-08 06:00:00,
2013-02-07 23:20:00,47.8,15.5,25.54,SW,216,3.1,4.9,27,0.00,,---,0.00,VWS V13.01,2013-02-08 06:20:00,
2013-02-07 23:40:00,46.8,14.6,25.54,SW,216,4.0,4.5,27,0.00,,---,0.00,VWS V13.01,2013-02-08 06:40:00,